Terug naar catalogus

STARLINK-32680

ActiefCommunicatieVLEO
NORAD 62423·PAYLOAD·🇺🇸 United States

Gelanceerd Dec 23, 2024 vanaf Cape Canaveral Space Force Station

Loading…

Volgende Passages (komende 24 uur)

TLE

VersSource: CelesTrak SupGP

Epoch: Sep 14, 2026, 22:21 UTC

1 62423C 24249Q   26257.93173611 -.00014632  00000+0 -53009-3 0  2575
2 62423  43.0019 325.5072 0001968 272.9695  92.2305 15.27578239    15

Volg STARLINK-32680 in realtime met AllMySat

Download on the App Store